Location: Geremba
(10.4250°N, 67.2394°W)
Time: 21:31:11
(UTC+00:00)

Cosmos 1943 Rocket - Pass Details

Date: 23 May 2024
Orbit: 810 x 844 km, 71.0° (Epoch: 22 June)

Event Time Altitude Azimuth Distance (km) Brightness Sun altitude
Rises 00:43:43 0° 351° (N) 3,377 5.9 -27.2°
Reaches altitude 10° 00:46:13 10° 355° (N) 2,439 5.0 -27.8°
Enters shadow 00:50:22 46° 24° (NNE) 1,102 2.7 -28.6°
